DateTime,F1_A11,F1_S11,BsB_S11,BsG_S11,BsR_S11,BbsB_S11,BbsG_S11,BbsR_S11,BaB_A11,BaG_A11,BaR_A11,T_S11,U_S11,P_S11,T1_A11
2016-04-14T00:00:00Z,0000380,21000600,,,,,,,,,,26.0,00.0,0671.8,34.6
2016-04-14T00:01:00Z,0000380,21000600,,,,,,,,,,26.0,00.0,0671.8,34.6
2016-04-14T00:02:00Z,0000380,21000600,,,,,,,,,,26.0,00.0,0671.8,34.6
2016-04-14T00:03:00Z,0000380,61000600,,,,,,,,,,26.1,00.0,0671.8,34.6
2016-04-14T00:04:00Z,0000380,41000600,0001.79,0001.44,0000.50,-000.36,0000.03,0000.03,0000.10,0000.10,0000.02,26.1,00.0,0672.5,34.6
2016-04-14T00:05:00Z,0000380,01000600,0001.41,0001.10,0000.52,-000.09,0000.36,-000.13,0000.13,0000.05,-000.19,26.1,00.0,0672.6,34.6
2016-04-14T00:06:00Z,0000380,01000600,0001.60,0001.64,0000.97,0000.74,0000.30,0000.36,0000.10,0000.13,0000.27,26.1,00.0,0672.6,34.6
2016-04-14T00:07:00Z,0000380,01000600,0001.89,0001.24,0000.85,-000.13,0000.30,0000.35,0000.16,0000.17,0000.12,26.1,00.0,0672.6,34.6
2016-04-14T00:08:00Z,0000380,01000600,0001.55,0001.36,0000.30,0000.22,0000.53,-000.36,0000.01,0000.14,0000.04,26.1,00.0,0672.6,34.6
2016-04-14T00:09:00Z,0000380,01000600,0002.00,0001.38,0000.18,-000.46,0000.33,0000.08,0000.10,-000.08,-000.03,26.1,00.0,0672.6,34.6
2016-04-14T00:10:00Z,0000380,01000600,0001.51,0001.28,0000.95,0000.25,0000.09,-000.05,0000.16,0000.05,0000.02,26.1,00.0,0672.6,34.6
2016-04-14T00:11:00Z,0000380,01000600,0001.76,0000.86,0000.65,0000.42,-000.03,0000.24,0000.09,0000.18,0000.11,26.1,00.0,0672.6,34.6
2016-04-14T00:12:00Z,0000380,01000600,0002.13,0001.27,0000.42,0000.27,0000.06,-000.09,0000.10,-000.01,0000.07,26.2,00.0,0672.6,34.6
2016-04-14T00:13:00Z,0000380,01000600,0001.07,0001.39,0001.05,0000.58,0000.14,0000.19,0000.08,0000.13,-000.05,26.2,00.0,0672.6,34.6
2016-04-14T00:14:00Z,0000380,01000600,0002.52,0002.17,0000.63,0000.31,0000.47,-000.27,0000.05,0000.28,0000.59,26.2,00.0,0672.6,34.6
2016-04-14T00:15:00Z,0000380,01000600,0001.21,0001.41,0000.95,0000.22,0000.05,-000.02,0000.31,0000.08,-000.07,26.2,00.0,0672.6,34.7
2016-04-14T00:16:00Z,0000380,01000600,0001.79,0002.18,0000.84,-000.31,0000.06,-000.06,0000.26,0000.30,0000.30,26.2,00.0,0672.6,34.7
2016-04-14T00:17:00Z,0000380,01000600,0003.08,0001.26,0000.60,-000.14,0000.45,0000.14,0000.31,0000.09,0000.07,26.2,00.0,0672.6,34.7
2016-04-14T00:18:00Z,0000380,01000600,0001.63,0001.00,0000.73,0000.42,0000.22,-000.36,0000.16,0000.19,0000.10,26.2,00.0,0672.6,34.7
2016-04-14T00:19:00Z,0000380,01000600,0002.53,0001.61,0000.92,0000.50,0000.17,0000.19,0000.06,-000.02,0000.06,26.2,00.0,0672.6,34.7
2016-04-14T00:20:00Z,0000380,01000600,0002.39,0001.32,0001.10,0000.53,0000.03,0000.33,-000.09,0000.17,-000.12,26.2,00.0,0672.6,34.7
2016-04-14T00:21:00Z,0000380,01000600,0002.11,0001.42,0000.81,0000.53,-000.11,-000.02,0000.10,0000.13,0000.05,26.1,00.0,0672.6,34.7
2016-04-14T00:22:00Z,0000380,01000600,0002.49,0001.90,0000.75,0000.53,-000.02,0000.33,0000.17,0000.01,-000.01,26.1,00.0,0672.6,34.7
2016-04-14T00:23:00Z,0000380,01000600,0001.40,0000.76,0000.37,0000.83,0000.25,-000.08,0000.24,-000.03,-000.07,26.1,00.0,0672.6,34.7
2016-04-14T00:24:00Z,0000380,01000600,0001.97,0001.75,0000.58,0000.55,0000.34,-000.02,-000.04,0000.04,0000.43,26.1,00.0,0672.6,34.7
2016-04-14T00:25:00Z,0000380,01000600,0001.64,0001.96,0001.04,0000.69,0000.42,-000.05,0000.35,0000.12,-000.06,26.1,00.0,0672.6,34.7
2016-04-14T00:26:00Z,0000380,01000600,0002.20,0001.49,0000.67,0000.47,0000.27,-000.06,-000.23,0000.06,0000.13,26.2,00.0,0672.6,34.7
2016-04-14T00:27:00Z,0000380,01000600,0001.91,0001.37,0000.36,0000.31,0000.44,-000.09,0000.26,0000.19,0000.19,26.2,00.0,0672.6,34.7
2016-04-14T00:28:00Z,0000380,01000600,0002.17,0001.42,0000.22,0000.50,-000.02,-000.14,0000.04,0000.20,-000.02,26.3,00.0,0672.6,34.7
2016-04-14T00:29:00Z,0000380,01000600,0002.69,0001.22,0000.72,0000.27,0000.08,-000.09,0000.25,-000.08,-000.04,26.3,00.0,0672.6,34.7
2016-04-14T00:30:00Z,0000380,01000600,0001.37,0000.98,0000.69,-000.16,0000.67,0000.03,0000.31,0000.51,0000.53,26.3,00.0,0672.6,34.7
2016-04-14T00:31:00Z,0000380,01000600,0002.59,0001.25,0001.09,0001.15,0000.08,-000.05,-000.18,-000.00,-000.27,26.2,00.0,0672.6,34.7
2016-04-14T00:32:00Z,0000380,01000600,0001.64,0001.12,0000.73,-000.13,0000.05,0000.27,0000.30,0000.16,0000.19,26.2,00.0,0672.6,34.7
2016-04-14T00:33:00Z,0000380,01000600,0000.66,0000.66,0000.91,0000.75,0000.27,-000.03,0000.20,-000.02,-000.14,26.2,00.0,0672.6,34.7
2016-04-14T00:34:00Z,0000380,01000600,0003.34,0001.26,0000.63,0000.69,0000.11,-000.19,0000.03,0000.11,0000.30,26.2,00.0,0672.6,34.7
2016-04-14T00:35:00Z,0000380,01000600,0001.40,0001.17,0001.27,0000.28,0000.39,0000.13,0000.11,0000.19,0000.26,26.2,00.0,0672.6,34.7
2016-04-14T00:36:00Z,0000380,01000600,0001.50,0001.78,0001.17,0000.61,-000.19,0000.09,0000.25,0000.05,0000.04,26.2,00.0,0672.6,34.7
2016-04-14T00:37:00Z,0000380,01000600,0001.90,0002.11,0000.67,0000.03,0000.13,0000.27,0000.05,0000.07,-000.21,26.2,00.0,0672.6,34.7
2016-04-14T00:38:00Z,0000380,01000600,0002.11,0001.65,0001.46,0000.22,0000.47,0000.28,-000.03,0000.20,0000.30,26.2,00.0,0672.6,34.7
2016-04-14T00:39:00Z,0000380,01000600,0001.33,0002.05,0000.76,0000.02,0000.59,0000.05,0000.24,0000.16,0000.06,26.2,00.0,0672.6,34.7
2016-04-14T00:40:00Z,0000380,01000600,0002.14,0002.35,0000.91,-000.06,0000.36,0000.03,0000.16,-000.06,0000.13,26.3,00.0,0672.6,34.7
2016-04-14T00:41:00Z,0000380,01000600,0002.01,0002.43,0000.83,0000.31,-000.05,0000.39,0000.30,0000.37,0000.03,26.2,00.0,0672.6,34.7
2016-04-14T00:42:00Z,0000380,01000600,0001.87,0002.21,0000.76,0000.47,0000.34,0000.28,0000.07,0000.03,0000.03,26.2,00.0,0672.6,34.7
2016-04-14T00:43:00Z,0000380,01000600,0002.23,0001.51,0000.59,0000.53,0000.17,-000.09,0000.20,0000.10,0000.30,26.2,00.0,0672.6,34.7
2016-04-14T00:44:00Z,0000380,01000600,0001.57,0001.45,0000.61,0000.75,-000.19,-000.14,0000.06,0000.13,-000.23,26.2,00.0,0672.6,34.7
2016-04-14T00:45:00Z,0000380,01000600,0002.31,0002.19,0000.35,-000.08,0000.38,0000.14,-000.02,0000.22,0000.19,26.2,00.0,0672.6,34.6
2016-04-14T00:46:00Z,0000380,01000600,0002.67,0001.91,0000.20,0000.96,0000.38,0000.14,0000.18,0000.05,0000.37,26.2,00.0,0672.6,34.6
2016-04-14T00:47:00Z,0000380,01000600,0002.27,0000.96,0000.51,0000.96,0000.25,0000.08,0000.33,0000.05,-000.06,26.2,00.0,0672.6,34.6
2016-04-14T00:48:00Z,0000380,01000600,0001.94,0000.83,0001.01,0000.30,-000.14,-000.13,0000.10,0000.12,-000.12,26.2,00.0,0672.6,34.6
2016-04-14T00:49:00Z,0000380,01000600,0002.70,0001.28,0000.53,0000.55,0000.23,0000.16,-000.02,0000.05,-000.14,26.2,00.0,0672.6,34.6
2016-04-14T00:50:00Z,0000380,01000600,0002.24,0002.33,0000.77,0001.00,0000.41,-000.05,0000.17,0000.06,0000.30,26.2,00.0,0672.7,34.6
2016-04-14T00:51:00Z,0000380,01000600,0001.19,0001.92,0001.05,0000.47,0000.22,0000.31,0000.19,0000.11,0000.24,26.2,00.0,0672.7,34.6
2016-04-14T00:52:00Z,0000380,01000600,0001.63,0001.05,0000.52,0000.49,0000.08,-000.02,0000.07,0000.21,0000.41,26.2,00.0,0672.7,34.6
2016-04-14T00:53:00Z,0000380,01000600,0001.88,0001.69,0000.98,0000.16,0000.03,0000.14,0000.20,0000.04,-000.39,26.2,00.0,0672.7,34.6
2016-04-14T00:54:00Z,0000380,01000600,0002.08,0001.64,0000.20,0000.08,-000.08,0000.20,0000.21,0000.10,0000.19,26.2,00.0,0672.7,34.6
2016-04-14T00:55:00Z,0000380,01000600,0001.70,0000.81,0000.55,0000.57,0000.28,-000.13,0000.06,0000.00,-000.16,26.2,00.0,0672.7,34.6
2016-04-14T00:56:00Z,0000380,01000600,0002.04,0001.47,0001.38,0000.42,0000.34,0000.42,0000.16,0000.26,0000.40,26.2,00.0,0672.7,34.6
2016-04-14T00:57:00Z,0000380,41000600,,,,,,,,,,,,0672.8,34.6
2016-04-14T00:58:00Z,0000380,61000600,,,,,,,,,,26.0,00.0,0671.9,34.6
2016-04-14T00:59:00Z,0000380,21000600,,,,,,,,,,26.0,00.0,0671.9,34.6
2016-04-14T01:00:00Z,0000380,21000600,,,,,,,,,,26.0,00.0,0671.9,34.6
2016-04-14T01:01:00Z,0000380,21000600,,,,,,,,,,26.0,00.0,0671.9,34.6
2016-04-14T01:02:00Z,0000380,21000600,,,,,,,,,,26.0,00.0,0671.9,34.6
2016-04-14T01:03:00Z,0000380,61000600,,,,,,,,,,26.1,00.0,0671.9,34.6
2016-04-14T01:04:00Z,0000380,41000600,0001.85,0001.54,0000.90,0000.71,0000.33,0000.13,0000.15,0000.18,0000.16,26.3,00.0,0672.7,34.6
2016-04-14T01:05:00Z,0000380,01000600,0002.90,0001.16,0000.62,-000.03,0000.75,0000.35,0000.04,-000.03,0000.18,26.3,00.0,0672.8,34.6
2016-04-14T01:06:00Z,0000380,01000600,0001.71,0002.14,0000.36,0000.06,0000.42,-000.16,0000.13,0000.18,0000.30,26.3,00.0,0672.7,34.6
2016-04-14T01:07:00Z,0000380,01000600,0002.34,0001.25,0000.41,0000.69,0000.25,0000.35,0000.24,0000.30,-000.06,26.3,00.0,0672.7,34.6
2016-04-14T01:08:00Z,0000380,01000600,0002.39,0000.45,0000.88,0000.25,0000.31,-000.38,0000.20,0000.19,0000.17,26.3,00.0,0672.8,34.6
2016-04-14T01:09:00Z,0000380,01000600,0001.99,0001.02,0000.89,0000.38,0000.36,-000.06,0000.15,0000.04,0000.11,26.3,00.0,0672.8,34.6
2016-04-14T01:10:00Z,0000380,01000600,0002.11,0001.86,0000.52,0000.35,0000.64,-000.02,0000.26,0000.06,0000.04,26.3,00.0,0672.8,34.6
2016-04-14T01:11:00Z,0000380,01000600,0001.83,0001.56,0000.76,-000.22,0000.27,-000.09,-000.04,0000.04,-000.16,26.3,00.0,0672.8,34.6
2016-04-14T01:12:00Z,0000380,01000600,0001.86,0001.49,0001.03,0001.00,-000.55,0000.19,0000.07,0000.13,0000.18,26.3,00.0,0672.8,34.6
2016-04-14T01:13:00Z,0000380,01000600,0001.07,0001.67,0000.64,0000.14,0000.14,0000.00,0000.10,0000.14,-000.29,26.3,00.0,0672.8,34.6
2016-04-14T01:14:00Z,0000380,01000600,0001.70,0001.51,0000.80,0000.44,0000.16,0000.09,0000.12,0000.04,0000.53,26.3,00.0,0672.8,34.6
2016-04-14T01:15:00Z,0000380,01000600,0001.94,0001.34,0000.57,-000.19,0000.59,-000.08,0000.19,0000.11,-000.22,26.3,00.0,0672.8,34.7
2016-04-14T01:16:00Z,0000380,01000600,0002.34,0001.27,0000.30,0000.14,0000.20,-000.09,0000.02,0000.11,0000.20,26.3,00.0,0672.8,34.7
2016-04-14T01:17:00Z,0000380,01000600,0001.79,0001.82,0000.25,-000.11,0000.25,0000.09,0000.12,0000.09,-000.12,26.3,00.0,0672.8,34.7
2016-04-14T01:18:00Z,0000380,01000600,0002.18,0001.73,0000.47,0000.50,0000.48,0000.60,0000.23,0000.08,0000.41,26.3,00.0,0672.8,34.7
2016-04-14T01:19:00Z,0000380,01000600,0002.52,0001.24,0000.40,0000.52,0000.14,0000.02,-000.08,-000.01,0000.05,26.3,00.0,0672.8,34.7
2016-04-14T01:20:00Z,0000380,01000600,0001.90,0001.42,-000.06,0000.83,0000.38,-000.19,0000.20,0000.36,0000.05,26.3,00.0,0672.8,34.7
2016-04-14T01:21:00Z,0000380,01000600,0002.52,0001.61,0001.15,0000.36,0000.19,0000.41,0000.01,-000.11,0000.10,26.3,00.0,0672.8,34.7
2016-04-14T01:22:00Z,0000380,01000600,0001.37,0001.36,0000.19,0000.09,0000.19,0000.41,0000.24,0000.25,-000.05,26.4,00.0,0672.9,34.7
2016-04-14T01:23:00Z,0000380,01000600,0001.35,0001.38,0000.36,0000.68,0000.16,-000.17,0000.27,0000.17,0000.22,26.3,00.0,0672.9,34.7
2016-04-14T01:24:00Z,0000380,01000600,0001.21,0001.43,0000.25,0001.10,0000.02,-000.06,0000.04,0000.16,0000.17,26.3,00.0,0672.9,34.7
2016-04-14T01:25:00Z,0000380,01000600,0001.88,0001.26,0000.64,-000.27,0000.45,-000.08,0000.24,0000.15,0000.16,26.3,00.0,0672.8,34.7
2016-04-14T01:26:00Z,0000380,01000600,0002.65,0001.83,0000.28,0000.06,0000.11,-000.05,0000.19,0000.10,-000.05,26.3,00.0,0672.8,34.7
2016-04-14T01:27:00Z,0000380,01000600,0001.37,0001.28,0000.45,0000.33,0000.02,0000.25,0000.02,0000.09,0000.20,26.4,00.0,0672.8,34.7
2016-04-14T01:28:00Z,0000380,01000600,0001.89,0001.65,0000.40,-000.16,0000.09,0000.46,0000.24,0000.23,0000.16,26.3,00.0,0672.8,34.7
2016-04-14T01:29:00Z,0000380,01000600,0001.08,0001.39,0000.45,-000.25,0000.94,0000.00,0000.34,0000.14,0000.19,26.3,00.0,0672.8,34.7
2016-04-14T01:30:00Z,0000380,01000600,0002.62,0001.08,0000.51,0000.57,0000.11,0000.19,0000.04,0000.15,0000.14,26.3,00.0,0672.8,34.7
2016-04-14T01:31:00Z,0000380,01000600,0002.20,0001.56,0000.73,0000.28,0000.36,-000.13,0000.28,0000.07,-000.19,26.3,00.0,0672.8,34.7
2016-04-14T01:32:00Z,0000380,01000600,0002.07,0001.74,0000.77,-000.27,-000.17,-000.11,-000.06,0000.02,-000.01,26.3,00.0,0672.8,34.7
2016-04-14T01:33:00Z,0000380,01000600,0002.06,0001.65,0000.73,0000.35,-000.02,-000.14,0000.15,0000.16,0000.34,26.3,00.0,0672.8,34.7
2016-04-14T01:34:00Z,0000380,01000600,0001.60,0001.31,0001.03,-000.22,-000.30,0000.08,0000.21,0000.12,-000.04,26.3,00.0,0672.8,34.7
2016-04-14T01:35:00Z,0000380,01000600,0001.87,0001.40,0000.49,-000.22,0000.61,0000.22,0000.10,0000.07,0000.01,26.3,00.0,0672.8,34.7
2016-04-14T01:36:00Z,0000380,01000600,0001.74,0001.17,0000.30,0000.03,0000.30,-000.13,0000.20,0000.05,0000.15,26.3,00.0,0672.8,34.7
2016-04-14T01:37:00Z,0000380,01000600,0002.00,0001.01,0000.18,0000.47,0000.13,0000.47,0000.14,0000.14,0000.05,26.3,00.0,0672.8,34.7
2016-04-14T01:38:00Z,0000380,01000600,0001.57,0000.92,0000.08,0000.39,0000.16,-000.05,0000.23,0000.11,0000.40,26.3,00.0,0672.8,34.7
2016-04-14T01:39:00Z,0000380,01000600,0002.07,0001.31,0000.26,0000.24,-000.28,0000.05,-000.13,0000.24,0000.12,26.3,00.0,0672.8,34.7
2016-04-14T01:40:00Z,0000380,01000600,0001.97,0001.35,0000.29,0000.30,0000.59,-000.13,0000.08,0000.00,0000.05,26.3,00.0,0672.8,34.7
2016-04-14T01:41:00Z,0000380,01000600,0002.17,0001.67,0000.10,0000.82,-000.06,-000.33,0000.34,0000.33,-000.07,26.3,00.0,0672.8,34.7
2016-04-14T01:42:00Z,0000380,01000600,0000.69,0000.94,0000.62,-000.19,-000.03,0000.46,0000.16,0000.00,-000.02,26.3,00.0,0672.8,34.7
2016-04-14T01:43:00Z,0000380,01000600,0001.25,0000.97,0000.51,0000.30,-000.17,-000.05,0000.03,0000.14,0000.05,26.3,00.0,0672.8,34.7
2016-04-14T01:44:00Z,0000380,01000600,0002.25,0001.66,0000.17,0000.39,0000.11,0000.42,0000.07,0000.14,0000.35,26.3,00.0,0672.8,34.7
2016-04-14T01:45:00Z,0000380,01000600,0002.29,0001.37,0000.57,0000.49,0000.41,-000.28,0000.38,-000.01,0000.09,26.3,00.0,0672.8,34.7
2016-04-14T01:46:00Z,0000380,01000600,0002.31,0001.20,0000.28,0000.79,0000.36,-000.11,-000.04,0000.15,0000.06,26.3,00.0,0672.8,34.7
2016-04-14T01:47:00Z,0000380,01000600,0002.14,0000.79,0000.35,-000.44,-000.41,-000.46,0000.17,0000.12,0000.11,26.3,00.0,0672.8,34.7
2016-04-14T01:48:00Z,0000380,01000600,0001.98,0001.31,0000.40,0000.16,-000.05,-000.02,0000.17,0000.15,0000.21,26.3,00.0,0672.8,34.7
2016-04-14T01:49:00Z,0000380,01000600,0001.73,0000.67,0000.05,0000.39,0000.27,0000.11,0000.05,0000.14,0000.14,26.3,00.0,0672.9,34.7
2016-04-14T01:50:00Z,0000380,01000600,0001.10,0000.91,0000.53,0000.93,0000.27,0000.09,0000.14,0000.12,-000.13,26.3,00.0,0672.9,34.7
2016-04-14T01:51:00Z,0000380,01000600,0001.66,0001.12,0000.75,0000.09,0000.20,-000.06,0000.02,0000.11,0000.35,26.3,00.0,0672.8,34.7
2016-04-14T01:52:00Z,0000380,01000600,0001.58,0000.56,0000.56,0000.13,0000.19,0000.33,0000.17,-000.02,-000.27,26.3,00.0,0672.8,34.7
2016-04-14T01:53:00Z,0000380,01000600,0002.13,0001.39,0000.43,0000.63,0000.23,0000.00,0000.19,0000.37,0000.41,26.2,00.0,0672.8,34.7
2016-04-14T01:54:00Z,0000380,01000600,0000.96,0001.59,0000.44,-000.35,0000.19,0000.28,0000.09,-000.08,0000.00,26.2,00.0,0672.9,34.7
2016-04-14T01:55:00Z,0000380,01000600,0001.70,0001.62,0000.58,0001.00,-000.16,0000.25,0000.16,0000.07,-000.13,26.2,00.0,0672.8,34.7
2016-04-14T01:56:00Z,0000380,01000600,0001.75,0001.29,0000.27,-000.02,0000.47,0000.50,0000.01,0000.04,0000.27,26.2,00.0,0672.8,34.7
2016-04-14T01:57:00Z,0000380,41000600,,,,,,,,,,,,0672.9,34.7
2016-04-14T01:58:00Z,0000380,61000600,,,,,,,,,,26.2,00.0,0672.1,34.7
2016-04-14T01:59:00Z,0000380,21000600,,,,,,,,,,26.2,00.0,0672.0,34.7
2016-04-14T02:00:00Z,0000380,21000600,,,,,,,,,,26.2,00.0,0672.0,34.7
2016-04-14T02:01:00Z,0000380,21000600,,,,,,,,,,26.2,00.0,0672.0,34.7
2016-04-14T02:02:00Z,0000380,21000600,,,,,,,,,,26.2,00.0,0672.0,34.7
2016-04-14T02:03:00Z,0000380,61000600,,,,,,,,,,26.2,00.0,0672.0,34.7
2016-04-14T02:04:00Z,0000380,41000600,0001.24,0000.91,0001.09,0000.09,0000.52,0000.31,0000.10,0000.22,0000.60,26.3,00.0,0672.7,34.7
2016-04-14T02:05:00Z,0000380,01000600,0001.25,0000.60,0001.36,0000.49,0000.23,-000.22,0000.23,0000.15,0000.08,26.3,00.0,0672.8,34.7
2016-04-14T02:06:00Z,0000380,01000600,0001.08,0001.04,0000.65,-000.13,0000.00,0000.25,0000.08,0000.07,-000.13,26.2,00.0,0672.8,34.7
2016-04-14T02:07:00Z,0000380,01000600,0001.26,0000.39,0000.82,0000.20,-000.11,-000.02,0000.13,0000.14,0000.51,26.3,00.0,0672.8,34.7
2016-04-14T02:08:00Z,0000380,01000600,0001.69,0001.33,0001.31,-000.53,-000.47,0000.06,0000.09,0000.03,-000.31,26.3,00.0,0672.8,34.7
2016-04-14T02:09:00Z,0000380,01000600,0000.87,0000.51,0001.41,0000.09,0000.16,0000.16,0000.08,0000.11,0000.01,26.3,00.0,0672.7,34.7
2016-04-14T02:10:00Z,0000380,01000600,0001.16,0001.03,0000.97,0000.13,0000.23,0000.41,0000.18,-000.01,0000.16,26.3,00.0,0672.7,34.7
2016-04-14T02:11:00Z,0000380,01000600,0002.37,0000.97,0001.26,0000.27,0000.34,0000.05,0000.12,0000.10,0000.01,26.3,00.0,0672.7,34.7
2016-04-14T02:12:00Z,0000380,01000600,0001.34,0000.97,0000.98,0000.80,-000.25,0000.22,0000.17,0000.19,0000.26,26.3,00.0,0672.7,34.7
2016-04-14T02:13:00Z,0000380,01000600,0001.54,0001.04,0000.89,-000.14,0000.36,0000.28,0000.13,0000.15,0000.03,26.3,00.0,0672.7,34.7
2016-04-14T02:14:00Z,0000380,01000600,0001.02,0000.70,0000.96,0000.09,0000.20,-000.20,0000.06,0000.13,-000.01,26.3,00.0,0672.7,34.7
2016-04-14T02:15:00Z,0000380,01000600,0002.02,0000.69,0001.02,0000.35,0000.50,0000.20,0000.17,0000.09,-000.10,26.2,00.0,0672.7,34.6
2016-04-14T02:16:00Z,0000380,01000600,0001.53,0000.51,0001.22,0000.11,-000.08,0000.50,0000.11,0000.19,0000.37,26.2,00.0,0672.7,34.6
2016-04-14T02:17:00Z,0000380,01000600,0003.29,0001.45,0000.53,0000.13,0000.19,0000.14,0000.20,-000.02,-000.10,26.2,00.0,0672.7,34.6
2016-04-14T02:18:00Z,0000380,01000600,0002.04,0000.74,0001.12,0000.64,-000.23,0000.47,-000.05,0000.05,0000.06,26.2,00.0,0672.7,34.6
2016-04-14T02:19:00Z,0000380,01000600,0000.99,0000.80,0001.05,0000.86,-000.08,0000.25,0000.09,0000.15,-000.11,26.2,00.0,0672.7,34.6
2016-04-14T02:20:00Z,0000380,01000600,0001.63,0000.67,0000.59,0000.64,-000.03,-000.33,0000.26,0000.29,0000.47,26.2,00.0,0672.6,34.6
2016-04-14T02:21:00Z,0000380,01000600,0002.61,0001.23,0000.97,-000.28,0000.03,0000.50,0000.07,0000.00,-000.05,26.2,00.0,0672.6,34.6
2016-04-14T02:22:00Z,0000380,01000600,0001.98,0001.00,0000.93,0000.30,0000.09,0000.03,0000.20,0000.12,0000.07,26.2,00.0,0672.6,34.6
2016-04-14T02:23:00Z,0000380,01000600,0001.39,0000.73,0001.08,0000.03,0000.23,-000.28,0000.24,0000.01,0000.15,26.2,00.0,0672.6,34.6
2016-04-14T02:24:00Z,0000380,01000600,0002.36,0001.22,0001.01,0000.06,-000.58,0000.33,0000.24,0000.22,-000.00,26.2,00.0,0672.6,34.6
2016-04-14T02:25:00Z,0000380,01000600,0001.12,0000.66,0000.93,0000.85,0000.13,0000.08,-000.05,-000.00,-000.05,26.2,00.0,0672.5,34.6
2016-04-14T02:26:00Z,0000380,01000600,0001.62,0001.71,0000.83,0000.53,-000.36,0000.02,0000.24,-000.04,0000.15,26.2,00.0,0672.5,34.6
2016-04-14T02:27:00Z,0000380,01000600,0000.62,0001.22,0001.01,-000.52,-000.19,0000.28,0000.13,0000.43,0000.12,26.2,00.0,0672.6,34.6
2016-04-14T02:28:00Z,0000380,01000600,0001.86,0001.39,0000.74,0000.71,0000.23,0000.03,0000.21,0000.14,0000.22,26.2,00.0,0672.6,34.6
2016-04-14T02:29:00Z,0000380,01000600,0001.63,0001.33,0001.14,0001.41,0000.41,0000.20,0000.09,0000.11,0000.10,26.2,00.0,0672.6,34.6
2016-04-14T02:30:00Z,0000380,01000600,0001.73,0001.01,0001.26,0000.24,0000.20,0000.14,0000.05,0000.06,0000.12,26.2,00.0,0672.6,34.6
2016-04-14T02:31:00Z,0000380,01000600,0001.75,0001.84,0001.28,0000.11,0000.56,-000.25,0000.19,0000.24,-000.13,26.2,00.0,0672.5,34.6
2016-04-14T02:32:00Z,0000380,01000600,0002.35,0000.93,0000.52,0000.88,0000.17,-000.19,0000.08,0000.01,0000.00,26.2,00.0,0672.5,34.6
2016-04-14T02:33:00Z,0000380,01000600,0002.35,0001.43,0001.28,0000.46,0000.13,0000.11,0000.07,0000.19,0000.23,26.2,00.0,0672.5,34.6
2016-04-14T02:34:00Z,0000380,01000600,0001.90,0001.33,0001.04,-000.03,0000.28,0000.03,0000.16,0000.09,0000.08,26.2,00.0,0672.5,34.6
2016-04-14T02:35:00Z,0000380,01000600,0002.67,0001.55,0001.20,0000.11,-000.13,0000.16,0000.08,0000.15,0000.04,26.2,00.0,0672.4,34.6
2016-04-14T02:36:00Z,0000380,01000600,0001.86,0001.98,0000.82,0000.57,0000.05,0000.58,0000.37,0000.04,0000.20,26.2,00.0,0672.4,34.6
2016-04-14T02:37:00Z,0000380,01000600,0001.15,0001.46,0000.91,0000.69,-000.23,0000.13,0000.06,0000.19,0000.09,26.1,00.0,0672.4,34.6
2016-04-14T02:38:00Z,0000380,01000600,0001.97,0001.58,0000.94,0000.25,0000.11,0000.28,0000.07,0000.13,-000.02,26.1,00.0,0672.4,34.6
2016-04-14T02:39:00Z,0000380,01000600,0001.86,0001.55,0000.67,0000.35,-000.23,-000.05,0000.22,0000.07,0000.04,26.1,00.0,0672.4,34.6
2016-04-14T02:40:00Z,0000380,01000600,0002.28,0001.34,0000.62,0001.10,0000.22,0000.09,-000.07,0000.11,0000.47,26.1,00.0,0672.3,34.6
2016-04-14T02:41:00Z,0000380,01000600,0001.90,0000.97,0000.39,0000.06,-000.31,0000.00,0000.36,-000.00,-000.25,26.1,00.0,0672.4,34.6
2016-04-14T02:42:00Z,0000380,01000600,0001.97,0000.59,0000.66,0000.16,-000.09,0000.05,0000.04,0000.06,-000.04,26.1,00.0,0672.4,34.6
2016-04-14T02:43:00Z,0000380,01000600,0001.64,0000.82,0000.24,0000.08,0000.16,0000.00,0000.21,0000.24,0000.12,26.1,00.0,0672.4,34.6
2016-04-14T02:44:00Z,0000380,01000600,0000.04,0000.47,0000.38,0000.16,-000.25,0000.14,-000.10,0000.28,0000.17,26.1,00.0,0672.4,34.6
2016-04-14T02:45:00Z,0000380,01000600,0000.12,0000.18,0000.12,0000.50,-000.13,0000.13,0000.14,-000.16,0000.14,26.1,00.0,0672.3,34.7
2016-04-14T02:46:00Z,0000380,01000600,0000.13,0000.62,0000.13,0000.22,-000.13,-000.03,0000.06,0000.22,0000.13,26.1,00.0,0672.3,34.7
2016-04-14T02:47:00Z,0000380,01000600,0001.48,0000.25,0000.57,0000.33,-000.23,0000.33,0000.01,-000.13,-000.07,26.1,00.0,0672.3,34.7
2016-04-14T02:48:00Z,0000380,01000600,-000.60,0000.62,0000.24,0000.80,0000.31,-000.05,0000.28,0000.10,-000.31,26.1,00.0,0672.3,34.7
2016-04-14T02:49:00Z,0000380,01000600,0000.61,-000.02,0000.42,0000.35,0000.22,0000.20,-000.00,0000.11,0000.37,26.1,00.0,0672.3,34.7
2016-04-14T02:50:00Z,0000380,01000600,0002.38,0000.57,0000.38,0000.03,-000.19,0000.09,0000.11,0000.08,0000.18,26.1,00.0,0672.3,34.7
2016-04-14T02:51:00Z,0000380,01000600,0001.49,0000.47,0000.72,0000.30,0000.23,0000.33,0000.01,0000.06,-000.10,26.1,00.0,0672.3,34.7
2016-04-14T02:52:00Z,0000380,01000600,0001.52,0000.33,0000.94,0000.22,-000.11,-000.03,0000.23,0000.14,0000.44,26.1,00.0,0672.3,34.7
2016-04-14T02:53:00Z,0000380,01000600,0000.95,0000.98,0000.38,0000.05,-000.02,-000.08,0000.11,0000.18,-000.12,26.1,00.0,0672.3,34.7
2016-04-14T02:54:00Z,0000380,01000600,0001.22,0000.68,0000.58,0000.20,-000.17,0000.02,0000.12,-000.04,-000.34,26.1,00.0,0672.3,34.7
2016-04-14T02:55:00Z,0000380,01000600,0002.06,0001.06,0000.48,0000.85,0000.08,0000.03,0000.07,0000.04,0000.37,26.1,00.0,0672.3,34.7
2016-04-14T02:56:00Z,0000380,01000600,0000.56,0000.38,0001.15,0000.63,0000.08,0000.42,0000.14,0000.35,0000.17,26.1,00.0,0672.3,34.7
2016-04-14T02:57:00Z,0000380,41000600,,,,,,,,,,,,0672.4,34.7
2016-04-14T02:58:00Z,0000380,61000600,,,,,,,,,,26.0,00.0,0671.5,34.7
2016-04-14T02:59:00Z,0000380,21000600,,,,,,,,,,26.0,00.0,0671.5,34.7
2016-04-14T03:00:00Z,0000380,21000600,,,,,,,,,,26.0,00.0,0671.5,34.6
2016-04-14T03:01:00Z,0000380,21000600,,,,,,,,,,26.0,00.0,0671.5,34.6
2016-04-14T03:02:00Z,0000380,21000600,,,,,,,,,,26.0,00.0,0671.5,34.6
2016-04-14T03:03:00Z,0000380,61000600,,,,,,,,,,26.0,00.0,0671.4,34.6
2016-04-14T03:04:00Z,0000380,41000600,0000.22,-000.02,0000.23,0000.72,0000.14,0000.19,-000.06,0000.10,0000.05,26.0,00.0,0672.1,34.6
2016-04-14T03:05:00Z,0000380,01000600,0000.42,0000.21,0000.14,-000.24,0000.33,0000.14,0000.16,-000.04,-000.37,26.0,00.0,0672.1,34.6
2016-04-14T03:06:00Z,0000380,01000600,0000.17,0000.28,0000.15,0000.05,-000.16,0000.13,-000.08,-000.01,0000.16,26.0,00.0,0672.0,34.6
2016-04-14T03:07:00Z,0000380,01000600,0000.35,0000.85,0000.08,0000.69,-000.17,0000.22,-000.12,0000.01,0000.14,26.0,00.0,0672.1,34.6
2016-04-14T03:08:00Z,0000380,01000600,0000.22,0000.62,-000.03,0000.46,0000.13,0000.06,0000.23,0000.03,0000.07,26.0,00.0,0672.1,34.6
2016-04-14T03:09:00Z,0000380,01000600,0000.89,0000.47,0000.22,-000.30,-000.16,-000.30,-000.08,-000.01,-000.02,26.0,00.0,0672.1,34.6
2016-04-14T03:10:00Z,0000380,01000600,0000.34,0000.78,0000.15,0000.31,0000.13,-000.19,-000.06,0000.10,-000.07,26.0,00.0,0672.1,34.6
2016-04-14T03:11:00Z,0000380,01000600,0001.08,0000.18,0000.13,0000.09,0000.14,-000.50,0000.18,-000.04,0000.11,26.0,00.0,0672.1,34.6
2016-04-14T03:12:00Z,0000380,01000600,0000.78,0000.38,-000.06,0000.36,0000.16,-000.28,0000.06,0000.06,-000.24,26.0,00.0,0672.0,34.6